Tracking 30743 objects as of 20-Jun-2025
HD Live streaming from Space Station
objects crossing your sky now

SL-12 R/B(2)

Track SL-12 R/B(2) now!


NORAD ID: 33111
Int'l Code: 2008-033D
Perigee: 35,674.2 km
Apogee: 35,930.4 km
Inclination: 9.9 °
Period: 1,436.5 minutes
Semi major axis: 42173 km
RCS: 2.244 m2 (large)
Launch date: June 27, 2008
Source: Commonwealth of Independent States (former USSR) (CIS)
Launch site: TYURATAM MISSILE AND SPACE COMPLEX (TTMTR)

Note: This is a ROCKET BODY
Your satellite tracking list
Your tracking list is empty




NASA's NSSDC Master Catalog

Two Line Element Set (TLE):
1 33111U 08033D   25170.91597301 -.00000163  00000-0  00000-0 0  9994
2 33111   9.8656  44.0789 0030371 332.1733 304.8318  1.00241151 62171
Source of the keplerian elements: AFSPC